{"data":{"norad_id":45721,"intl_designator":"2020-036A","name":"HAIYANG-1D","alt_names":[],"object_type":"PAYLOAD","status":"ACTIVE","operator":null,"country":"PRC","launch_date":"2020-06-10","launch_site_code":"TAISC","launch_vehicle":null,"mission":null,"orbit_class":"UNKNOWN","rcs_meters":null,"size_class":null,"mass_kg":null,"dimensions":null,"purposes":[],"wikipedia_slug":null,"has_3d_model":false,"image_url":null,"decayed_at":null,"tle_current":{"epoch":"2026-09-20T03:12:56.321280Z","epoch_age_seconds":102295,"freshness":"FRESH","line1":"1 45721U 20036A   26263.13398520  .00000127  00000+0  60619-4 0  9995","line2":"2 45721  98.4606 202.7710 0001746 206.1973 153.9124 14.34199211328585","mean_motion":14.34199211,"eccentricity":0.0001746,"inclination_deg":98.4606,"raan_deg":202.771,"arg_perigee_deg":206.1973,"mean_anomaly_deg":153.9124,"bstar":6.0619e-5,"rev_number":32858,"period_min":100.4044618736,"perigee_km":776.47940579764,"apogee_km":778.97823414198,"semimajor_km":7155.8658199698,"source":"CELESTRAK","updated_at":"2026-09-20T09:00:14.708495Z"}}}